• Join FlightAware (Why Join?)
  • Login
  • US Flag 
05:01AM EST


 

Airport Tracker/Info


-or-


 

Live Flight TrackerFlight Track Log ✈ N81EZ ✈ 07-Nov-2013 ✈ KBTL - KBTL

Flight Track Log - Related Links

Times and Time Zones

All times are in EST time to prevent confusion due to time zone crossing. See the N81EZ flight status page for this flight to view local times or setup timezone preferences in your user account.

Time Position Orientation Groundspeed Altitude Reporting Facility
EST Latitude Longitude Course Direction KTS MPH feet Rate Location/Type
05:22PM 42.2578 -85.2989 227° Southwest 82 94 3,200  Level Chicago Center
05:23PM 42.2350 -85.3158 209° Southwest 90 104 4,000 387 Climbing Chicago Center
05:24PM 42.2039 -85.3417 212° Southwest 104 120 4,000  Level Chicago Center
05:25PM 42.1811 -85.3633 215° Southwest 112 129 4,000  Level Chicago Center
05:26PM 42.3065 -85.2501 77° East  Level Estimated
05:26PM 42.1556 -85.3883 216° Southwest 107 123 4,000  Level Chicago Center
05:27PM 42.3065 -85.2501 227° Southwest  Level Estimated
05:27PM 42.1317 -85.4114 216° Southwest 106 122 4,000  Level Chicago Center
05:28PM 42.1075 -85.4333 214° Southwest 106 122 4,000  Level Chicago Center
05:29PM 42.0778 -85.4614 215° Southwest 107 123 4,000  Level Chicago Center
05:30PM 42.0528 -85.4844 214° Southwest 109 125 4,000  Level Chicago Center
05:31PM 42.0278 -85.5072 214° Southwest 109 125 4,000 -48 Level Chicago Center
05:32PM 41.9939 -85.5017 173° South 129 148 3,900 -242 Descending Chicago Center
05:33PM 41.9594 -85.4922 168° South 128 147 3,500 -484 Descending Chicago Center
05:34PM 41.9253 -85.4778 163° South 137 158 2,900 -290 Descending Chicago Center
05:35PM 41.9461 -85.4614 30° Northeast 127 146 2,900 48 Level Chicago Center
05:36PM 41.9639 -85.4911 309° West 111 128 3,000 -48 Climbing Chicago Center
05:37PM 41.9944 -85.5000 348° North 112 129 2,800 -145 Descending Chicago Center
05:38PM 42.0253 -85.5083 349° North 113 130 2,700  Descending Chicago Center
05:39PM 42.0536 -85.5139 352° North 109 125 2,800  Climbing Chicago Center
05:40PM 42.0836 -85.5178 355° North 108 124 2,700  Descending Chicago Center
05:42PM 42.1186 -85.5244 352° North 107 123 2,800 -97 Climbing Chicago Center
05:43PM 42.1458 -85.5306 351° North 103 119 2,500 -484 Descending Chicago Center
05:44PM 42.1742 -85.5389 348° North 103 119 1,800 -581 Descending Chicago Center
05:45PM 42.2025 -85.5458 350° North 103 119 1,300 -484 Descending Chicago Center